Regional Weather Roundup
Issued by NWS Cleveland, OH

Home | Current Version | Previous Version | Graphics & Text | Print | Product List | Glossary On
Versions: 1 2 3 4 5 6 7 8 9 10 11 12 13 14 15 16 17 18 19 20 21 22 23 24 25 26 27 28 29 30 31 32 33 34 35 36 37 38 39 40 41 42 43 44 45 46 47 48 49 50
000
ASUS41 KCLE 190100
RWRCLE
OHIO REGIONAL WEATHER ROUNDUP
NATIONAL WEATHER SERVICE WILMINGTON, OH
900 PM EDT FRI APR 18 2014

NOTE: "FAIR" INDICATES FEW OR NO CLOUDS BELOW 12,000 FEET WITH NO
SIGNIFICANT WEATHER AND/OR OBSTRUCTIONS TO VISIBILITY.

OHZ001>008-015>018-024>027-034-035-043-044-190200-
   NORTHWEST OHIO

CITY           SKY/WX    TMP DP  RH WIND       PRES   REMARKS
DEFIANCE       CLEAR     58  35  42 NW12      30.24R
FINDLAY        CLEAR     60  39  45 NW5       30.21R
TOLEDO EXPRESS CLEAR     52  42  69 E8        30.24R
TOLEDO METCALF CLEAR     51  41  68 NE7       30.25R
LIMA           CLEAR     58  39  49 NW7       30.22R
$$

OHZ009>014-019>023-028>033-038-089-190200-
   NORTHEAST OHIO

CITY           SKY/WX    TMP DP  RH WIND       PRES   REMARKS
CLE-HOPKINS    MOCLDY    50  38  63 NE12      30.27R
CLE-LAKEFRONT  MOCLDY    47  43  86 NE10      30.24R
CUY CO. ARPT   NOT AVBL
LORAIN-ELYRIA  CLEAR     52  40  63 E13       30.25R
ASHTABULA      MOCLDY    47  40  76 NE3       30.27R
AKRON-CANTON   PTCLDY    58  39  49 CALM      30.22R
WOOSTER        NOT AVBL
MANSFIELD      PTCLDY    58  40  51 CALM      30.22R
YOUNGSTOWN     PTCLDY    53  38  56 N8        30.23R
$$

OHZ042-051>053-060>062-070>072-077>081-190200-
  SOUTHWEST OHIO

CITY           SKY/WX    TMP DP  RH WIND       PRES   REMARKS
CINC-COVINGTON MOCLDY    64  36  35 E3        30.21R
CINC-LUNKEN    PTCLDY    58  44  60 CALM      30.22R
HAMILTON       MOCLDY    57  43  59 N3        30.22R
DAYTON         NOT AVBL
WRIGHT-PAT AFB PTCLDY    62  40  43 N3        30.22R
DAYTON GENERAL MOCLDY    62  37  39 CALM      30.21R
WILMINGTON     PTCLDY    57  39  51 CALM      30.22R
$$

OHZ036-037-039>041-045>050-054>059-063>069-073>076-082>088-190200-
  CENTRAL AND SOUTHEAST OHIO

CITY           SKY/WX    TMP DP  RH WIND       PRES   REMARKS
COLUMBUS       MOCLDY    63  37  38 CALM      30.21R
OSU AIRPORT    PTCLDY    61  36  39 CALM      30.21R
BOLTON FIELD   NOT AVBL
RICKENBACK AFB NOT AVBL
NEWARK         MOCLDY    56  41  57 CALM      30.21R
MARION         MOCLDY    58  40  51 CALM      30.22R
LANCASTER      MOCLDY    52  43  71 CALM      30.22R
ZANESVILLE     MOCLDY    61  34  36 N3        30.21R
NEW PHILLY     PTCLDY    57  38  48 CALM      30.22R
$$



USA.gov is the U.S. government's official web portal to all federal, state and local government web resources and services.